Mackall AAF, NC

6:17 AM EDT on July 23, 2017 (GMT -0400)
Mackall Army Air Field

Weather History for KHFF - April, 2013

Change the Weather History Date:

Friday, April 5, 2013

  Actual Average Record
Temperature  
Mean Temperature 50 °F -  
Max Temperature 60 °F 68 °F 82 °F (2005)
Min Temperature 39 °F 48 °F 32 °F (2015)
Degree Days  
Heating Degree Days 16    
Moisture  
Dew Point 42 °F    
Average Humidity 86    
Maximum Humidity 100    
Minimum Humidity 57    
Precipitation  
Precipitation 0.00 in - - ()
Sea Level Pressure  
Sea Level Pressure 29.96 in    
Wind  
Wind Speed 7 mph (North)    
Max Wind Speed 13 mph    
Max Gust Speed 16 mph    
Visibility 11 miles    
Events      
Averages and records for this station are not official NWS values.
T = Trace of Precipitation, MM = Missing Value Source: NWS Daily Summary

Daily Weather History Graph

Daily Weather History Graph

Search for Another Location

Airport or City:

Trip Planner

Search our weather history database for the weather conditions in past years. The results will help you decide how hot, cold, wet, or windy it might be!

Date:

Astronomy

Apr. 05, 2013 Rise Set
Actual Time 6:58 AM EDT 7:42 PM EDT
Civil Twilight 6:33 AM EDT 8:08 PM EDT
Nautical Twilight 6:03 AM EDT 8:38 PM EDT
Astronomical Twilight 5:32 AM EDT 9:09 PM EDT
Moon 3:54 AM EDT (4/5) 3:14 PM EDT (4/5)
Length of Visible Light 13h 35m
Length of Day
12h 43m
Waning Crescent, 24% of the Moon is Illuminated
Apr 5
Waning Crescent
Apr 10
New
Apr 18
First Quarter
Apr 25
Full
May 2
Last Quarter

Hourly Weather History & Observations

Time (EDT) Temp. Windchill Dew Point Humidity Pressure Visibility Wind Dir Wind Speed Gust Speed Precip Events Conditions
12:36 AM 41.0 °F 35.8 °F 39.2 °F 93% 29.92 in 5.0 mi North 8.1 mph - N/A   Light Drizzle
12:41 AM 41.0 °F 35.8 °F 39.2 °F 93% 29.91 in 5.0 mi North 8.1 mph - N/A   Light Drizzle
12:56 AM 40.5 °F 34.6 °F 39.7 °F 97% 29.94 in 6.0 mi North 9.2 mph - N/A   Drizzle
1:06 AM 41.0 °F 35.8 °F 39.2 °F 93% 29.92 in 4.0 mi North 8.1 mph - N/A   Drizzle
1:13 AM 41.0 °F 35.2 °F 39.2 °F 93% 29.92 in 4.0 mi North 9.2 mph - N/A   Overcast
1:56 AM 40.1 °F 34.7 °F 39.4 °F 97% 29.93 in 6.0 mi North 8.1 mph - N/A   Overcast
2:21 AM 41.0 °F 35.8 °F 39.2 °F 93% 29.90 in 9.0 mi North 8.1 mph - N/A   Overcast
2:56 AM 40.3 °F 35.5 °F 39.2 °F 96% 29.94 in 12.0 mi NNW 6.9 mph - N/A   Overcast
3:06 AM 41.0 °F 37.1 °F 39.2 °F 93% 29.92 in 12.0 mi North 5.8 mph - N/A   Overcast
3:56 AM 40.1 °F 36.1 °F 39.0 °F 96% 29.94 in 12.0 mi North 5.8 mph - N/A   Overcast
4:56 AM 39.9 °F 35.8 °F 38.8 °F 96% 29.93 in 12.0 mi North 5.8 mph - N/A   Overcast
5:56 AM 40.1 °F 36.1 °F 38.8 °F 95% 29.94 in 12.0 mi NNW 5.8 mph - N/A   Overcast
6:16 AM 41.0 °F 37.1 °F 39.2 °F 93% 29.92 in 12.0 mi NNW 5.8 mph - N/A   Overcast
6:56 AM 40.3 °F 38.2 °F 39.0 °F 95% 29.96 in 12.0 mi NNW 3.5 mph - N/A   Overcast
7:33 AM 41.0 °F 37.1 °F 39.2 °F 93% 29.95 in 12.0 mi NNW 5.8 mph - N/A   Overcast
7:56 AM 40.5 °F 35.1 °F 39.0 °F 95% 29.98 in 12.0 mi North 8.1 mph - N/A   Overcast
8:36 AM 41.0 °F 35.2 °F 39.2 °F 93% 29.95 in 5.0 mi North 9.2 mph - N/A   Overcast
8:51 AM 41.0 °F 36.4 °F 41.0 °F 100% 29.97 in 9.0 mi NNW 6.9 mph - N/A   Mostly Cloudy
8:56 AM 41.2 °F 36.6 °F 40.1 °F 96% 29.99 in 11.0 mi North 6.9 mph - N/A   Mostly Cloudy
9:06 AM 41.0 °F 36.4 °F 41.0 °F 100% 29.97 in 12.0 mi North 6.9 mph - N/A   Mostly Cloudy
9:21 AM 41.0 °F 35.8 °F 39.2 °F 93% 29.97 in 12.0 mi North 8.1 mph - N/A   Overcast
9:41 AM 42.8 °F 38.0 °F 41.0 °F 93% 29.98 in 12.0 mi North 8.1 mph - N/A   Overcast
9:56 AM 43.2 °F 37.9 °F 40.8 °F 91% 29.99 in 12.0 mi North 9.2 mph - N/A   Mostly Cloudy
10:26 AM 44.6 °F 39.2 °F 41.0 °F 87% 29.98 in 12.0 mi North 10.4 mph - N/A   Mostly Cloudy
10:56 AM 48.0 °F - 43.2 °F 83% 29.99 in 12.0 mi North 12.7 mph - N/A   Mostly Cloudy
11:56 AM 52.7 °F - 45.5 °F 76% 29.99 in 12.0 mi NNE 9.2 mph 16.1 mph N/A   Scattered Clouds
12:36 PM 55.4 °F - 44.6 °F 67% 29.97 in 12.0 mi NNE 10.4 mph 16.1 mph N/A   Mostly Cloudy
12:56 PM 55.6 °F - 45.1 °F 68% 29.96 in 12.0 mi North 9.2 mph - N/A   Mostly Cloudy
1:56 PM 57.4 °F - 45.1 °F 64% 29.95 in 12.0 mi NE 9.2 mph - N/A   Mostly Cloudy
2:16 PM 59.0 °F - 44.6 °F 59% 29.94 in 12.0 mi East 9.2 mph 15.0 mph N/A   Mostly Cloudy
2:56 PM 57.9 °F - 44.2 °F 60% 29.95 in 12.0 mi East 8.1 mph - N/A   Mostly Cloudy
3:56 PM 57.6 °F - 44.2 °F 61% 29.94 in 12.0 mi Variable 3.5 mph - N/A   Overcast
4:56 PM 58.6 °F - 45.3 °F 61% 29.93 in 12.0 mi NNE 3.5 mph - N/A   Mostly Cloudy
5:56 PM 60.3 °F - 45.0 °F 57% 29.94 in 12.0 mi NNW 4.6 mph - N/A   Partly Cloudy
6:56 PM 60.1 °F - 45.1 °F 58% 29.96 in 12.0 mi WNW 4.6 mph - N/A   Clear
7:56 PM 54.3 °F - 49.1 °F 83% 29.97 in 12.0 mi SSW 1.2 mph - N/A   Clear
8:56 PM 51.3 °F - 47.7 °F 87% 30.00 in 12.0 mi South 2.3 mph - N/A   Clear
9:56 PM 48.4 °F - 45.5 °F 90% 30.04 in 12.0 mi West 2.3 mph - N/A   Clear
10:56 PM 45.7 °F - 44.6 °F 96% 30.05 in 12.0 mi North 2.3 mph - N/A   Clear
11:56 PM 44.1 °F - 43.0 °F 96% 30.05 in 12.0 mi South 2.3 mph - N/A   Clear